DW4714 Weather Reports


time (UTC)temp
C
wind
direction
speed
KPH
gust
KPH
rain 1hr
cm
rain 24hr
cm
rain mn
cm
humidity
%
barometer
mb
20260506202716 16 180 3.2 9.7 0.00 0.10 0.10 69 1002.2
20260506201736 16 222 0.0 0.0 0.00 0.10 0.10 69 1002.2
20260506200716 16 207 0.0 0.0 0.00 0.10 0.10 69 1002.3
20260506195736 16 196 0.0 0.0 0.00 0.10 0.10 69 1002.4
20260506194716 16 253 0.0 0.0 0.00 0.10 0.10 69 1002.3
20260506193716 16 194 0.0 0.0 0.03 0.10 0.10 69 1002.5
20260506192716 16 181 0.0 0.0 0.03 0.10 0.10 69 1002.6
20260506191736 16 199 0.0 0.0 0.03 0.10 0.10 69 1002.7
20260506190837 16 196 0.0 0.0 0.03 0.10 0.10 69 1002.8
20260506185716 16 180 3.2 9.7 0.03 0.10 0.10 69 1002.9
20260506184736 16 211 0.0 0.0 0.03 0.10 0.10 69 1003.1
20260506183716 16 187 0.0 0.0 0.00 0.08 0.08 69 1003.1
20260506182716 16 180 0.0 6.4 0.00 0.08 0.08 69 1003.1
20260506181716 16 158 1.6 6.4 0.00 0.08 0.08 69 1003.3
20260506180716 16 192 0.0 0.0 0.00 0.08 0.08 69 1003.4
20260506175717 16 199 0.0 0.0 0.00 0.08 0.08 69 1003.4
20260506174716 16 163 0.0 0.0 0.00 0.08 0.08 68 1003.4
20260506173716 16 190 0.0 0.0 0.00 0.08 0.08 68 1003.5
20260506172716 16 180 0.0 9.7 0.00 0.08 0.08 67 1003.4
20260506171716 16 189 0.0 0.0 0.00 0.08 0.08 67 1003.4
20260506170716 15 191 0.0 0.0 0.00 0.08 0.08 67 1003.3
20260506165736 15 194 0.0 0.0 0.03 0.08 0.08 67 1003.5
20260506164716 16 192 0.0 0.0 0.03 0.08 0.08 66 1003.6
20260506163716 16 158 3.2 8.0 0.03 0.08 0.08 66 1003.5
20260506162716 16 180 1.6 6.4 0.03 0.08 0.08 66 1003.5
20260506161735 16 180 4.8 9.7 0.03 0.08 0.08 66 1003.6
20260506160716 16 180 0.0 6.4 0.03 0.08 0.08 66 1003.6
20260506155717 16 180 3.2 11.3 0.00 0.05 0.05 66 1003.7
20260506154736 16 199 0.0 0.0 0.00 0.05 0.05 66 1004.0
20260506153716 16 180 3.2 12.9 0.00 0.05 0.05 66 1004.6
20260506152716 16 203 6.4 9.7 0.03 0.05 0.05 65 1004.5
20260506151716 16 158 3.2 6.4 0.03 0.05 0.05 65 1004.3
20260506150716 16 155 0.0 0.0 0.03 0.05 0.05 65 1004.1
20260506145736 16 180 0.0 3.2 0.03 0.05 0.05 65 1004.3
20260506144716 16 180 3.2 9.7 0.03 0.05 0.05 65 1004.3
20260506143716 16 173 0.0 0.0 0.03 0.05 0.05 65 1004.5
20260506142716 16 203 3.2 8.0 0.03 0.03 0.03 64 1004.7
20260506141735 16 205 0.0 0.0 0.03 0.03 0.03 65 1004.7
20260506140716 16 203 1.6 6.4 0.03 0.03 0.03 65 1004.6
20260506135718 17 199 0.0 0.0 0.03 0.03 0.03 65 1004.6
20260506134717 17 196 0.0 0.0 0.03 0.03 0.03 65 1004.8
20260506133758 17 203 4.8 9.7 0.03 0.03 0.03 65 1004.7
20260506132718 17 180 0.0 0.0 0.00 0.00 0.00 65 1004.8
20260506131718 17 180 1.6 8.0 0.00 0.00 0.00 64 1005.0
20260506130738 17 180 4.8 11.3 0.00 0.00 0.00 62 1004.9
20260506125717 18 225 9.7 22.5 0.00 0.00 0.00 60 1004.9
20260506124737 18 225 8.0 12.9 0.00 0.00 0.00 59 1004.7
20260506123717 18 203 11.3 17.7 0.00 0.00 0.00 59 1004.7
20260506122718 18 205 0.0 0.0 0.00 0.00 0.00 59 1004.7
20260506121738 18 170 0.0 0.0 0.00 0.00 0.00 59 1004.6
20260506120719 18 192 0.0 0.0 0.00 0.00 0.00 59 1004.7
20260506115737 18 203 3.2 9.7 0.00 0.00 0.00 59 1004.8
20260506114717 18 186 0.0 0.0 0.00 0.00 0.00 59 1004.7
20260506113717 17 203 3.2 6.4 0.00 0.00 0.00 59 1004.8
20260506112717 17 158 6.4 17.7 0.00 0.00 0.00 59 1004.7
20260506111717 17 180 1.6 6.4 0.00 0.00 0.00 59 1004.7
20260506110717 17 169 0.0 0.0 0.00 0.00 0.00 60 1004.7
20260506105717 17 203 1.6 6.4 0.00 0.00 0.00 60 1004.4
20260506104758 17 180 0.0 6.4 0.00 0.00 0.00 60 1004.4
20260506103717 17 193 0.0 0.0 0.00 0.00 0.00 60 1004.4
20260506102717 16 193 0.0 0.0 0.00 0.00 0.00 60 1004.3
20260506101717 16 194 0.0 0.0 0.00 0.00 0.00 61 1004.4
20260506100717 16 225 1.6 3.2 0.00 0.03 0.00 61 1004.2
20260506095717 16 180 0.0 1.6 0.00 0.03 0.00 61 1004.6
20260506094717 16 181 0.0 0.0 0.00 0.03 0.00 60 1004.4
20260506093717 16 180 0.0 3.2 0.00 0.03 0.00 60 1004.2
20260506092717 16 213 0.0 0.0 0.00 0.03 0.00 60 1004.4
20260506091717 15 207 0.0 0.0 0.00 0.03 0.00 60 1004.4
20260506090758 15 207 0.0 0.0 0.00 0.03 0.00 60 1004.3
20260506085717 15 236 0.0 0.0 0.00 0.03 0.00 60 1004.5
20260506084717 15 270 1.6 4.8 0.00 0.03 0.00 61 1004.6
20260506083717 15 271 0.0 0.0 0.00 0.03 0.00 61 1004.6
20260506082737 15 271 0.0 0.0 0.00 0.03 0.00 61 1004.6
20260506081717 15 271 0.0 0.0 0.00 0.03 0.00 60 1004.7
20260506080717 15 271 0.0 0.0 0.00 0.03 0.00 59 1004.6
20260506072732 16 271 0.0 0.0 0.00 0.03 0.00 55 1004.8
20260506071717 16 271 0.0 0.0 0.00 0.03 0.00 54 1004.9
20260506070817 17 271 0.0 0.0 0.00 0.03 0.00 53 1004.9
20260506061717 18 271 0.0 0.0 0.00 0.03 0.00 47 1005.4
20260506060717 18 271 0.0 0.0 0.00 0.03 0.00 47 1005.5
20260506050716 18 206 0.0 0.0 0.00 0.03 0.00 45 1005.8
20260506044817 18 180 1.6 4.8 0.00 0.03 0.00 44 1005.8
20260506043736 18 227 0.0 0.0 0.00 0.03 0.00 44 1005.8
20260506042717 18 208 0.0 0.0 0.00 0.03 0.00 44 1005.8
20260506041757 19 248 0.0 4.8 0.00 0.03 0.00 43 1005.8
20260506040717 19 193 0.0 0.0 0.00 0.03 0.00 42 1005.7
20260506035717 19 191 0.0 0.0 0.00 0.03 0.03 41 1005.7
20260506034717 20 203 0.0 4.8 0.00 0.03 0.03 41 1005.7
20260506033717 20 203 1.6 4.8 0.00 0.03 0.03 39 1005.8
20260506032717 20 248 0.0 3.2 0.00 0.03 0.03 38 1005.7
20260506031717 21 203 0.0 4.8 0.00 0.03 0.03 37 1005.6
20260506030717 21 171 0.0 0.0 0.00 0.03 0.03 37 1005.5
20260506025717 21 192 0.0 0.0 0.00 0.03 0.03 37 1005.5
20260506024717 21 248 0.0 3.2 0.00 0.03 0.03 36 1005.4
20260506023717 21 178 0.0 0.0 0.00 0.03 0.03 35 1005.5
20260506022722 21 175 0.0 0.0 0.00 0.03 0.03 34 1005.6
20260506021737 21 203 4.8 11.3 0.00 0.03 0.03 34 1005.4
20260506020737 22 180 3.2 8.0 0.00 0.03 0.03 33 1005.4
20260506015717 22 180 1.6 6.4 0.00 0.03 0.03 32 1005.3
20260506014717 22 158 3.2 11.3 0.00 0.03 0.03 32 1005.3
20260506013737 22 176 0.0 0.0 0.00 0.03 0.03 32 1005.1
20260506012717 22 180 0.0 4.8 0.00 0.03 0.03 33 1005.1
20260506011717 22 193 0.0 0.0 0.00 0.03 0.03 32 1004.9
20260506010717 22 169 0.0 0.0 0.00 0.03 0.03 32 1004.8
20260506005717 22 203 0.0 3.2 0.00 0.03 0.03 32 1004.7
20260506004717 22 194 0.0 0.0 0.00 0.03 0.03 31 1004.5
20260506003717 23 180 0.0 3.2 0.00 0.03 0.03 30 1004.4
20260506002717 23 225 0.0 1.6 0.00 0.03 0.03 30 1004.3
20260506001717 23 203 3.2 8.0 0.00 0.03 0.03 30 1004.3
20260506000717 24 171 0.0 0.0 0.00 0.03 0.03 29 1004.2
20260505235717 24 203 9.7 16.1 0.00 0.03 0.03 28 1004.1
20260505234716 24 203 3.2 8.0 0.00 0.03 0.03 28 1004.0
20260505233737 24 180 1.6 6.4 0.00 0.03 0.03 28 1004.0
20260505232737 25 180 1.6 8.0 0.00 0.03 0.03 28 1003.8
20260505231742 25 203 11.3 27.4 0.00 0.03 0.03 27 1004.0
20260505230757 25 180 3.2 8.0 0.00 0.03 0.03 26 1003.8
20260505225717 25 203 6.4 12.9 0.00 0.03 0.03 26 1003.7
20260505224716 25 203 3.2 9.7 0.00 0.03 0.03 26 1003.4
20260505223717 25 225 1.6 4.8 0.00 0.03 0.03 25 1003.5
20260505222717 25 180 0.0 3.2 0.00 0.03 0.03 26 1003.5
20260505221717 25 203 3.2 9.7 0.00 0.03 0.03 25 1003.5
20260505220716 26 203 6.4 11.3 0.00 0.03 0.03 24 1003.4
20260505215717 26 203 16.1 30.6 0.00 0.03 0.03 24 1003.3
20260505214737 26 248 3.2 6.4 0.00 0.03 0.03 25 1003.3
20260505213717 26 203 11.3 24.1 0.00 0.03 0.03 24 1003.3
20260505212721 26 203 8.0 24.1 0.00 0.03 0.03 25 1003.2
20260505211717 26 203 9.7 19.3 0.00 0.03 0.03 24 1003.1
20260505210717 27 203 11.3 24.1 0.00 0.03 0.03 24 1003.1
20260505205717 27 203 4.8 9.7 0.00 0.03 0.03 24 1003.0
20260505204717 28 180 11.3 20.9 0.00 0.03 0.03 23 1003.1
20260505203757 28 203 11.3 22.5 0.00 0.03 0.03 24 1003.0